Location: Eyeline Observatory
(43.2182°N, 78.8632°W)
Time: 10:06:43
(UTC-05:00)

Envisat - Pass Details

Date: 08 October 2017
Orbit: 764 x 766 km, 98.2° (Epoch: 16 December)

Event Time Altitude Azimuth Distance (km) Brightness Sun altitude
Exits shadow 20:41:30 53° 107° (ESE) 938 3.0 -22.2°
Maximum altitude 20:42:12 58° 72° (ENE) 889 3.0 -22.3°
Drops below altitude 10° 20:47:12 10° 354° (N) 2,314 5.7 -23.2°
Sets 20:49:33 0° 351° (N) 3,245 6.5 -23.6°
